星链-30241 (STARLINK-30241 )

导读

STARLINK-30241是美国太空探索技术公司Starlink星链互联网星座的一员,于2023年7月10日发射升空。星链计划旨在搭建全球卫星互联网,为偏远、网络欠发达地区提供高速网络服务,该卫星入轨后,进一步拓展了星链星座的覆盖规模与服务能力。

基本信息
目录编号:
57298
目录名称:
STARLINK-30241
国际标识:
2023-096J
轨道中心:
EARTH
卫星名称:
星链-30241
卫星全名:
星链-30241 (STARLINK-30241 )
卫星状态:
已陨落 最后检测时间 2026-02-15
发射日期:
2023-07-10 UTC
国别 :
美国 (US)
星等 :
--
轨道信息
数据来源 国际轨道数据
星历时间: 2026-02-15T08:35:49+0800
轨道信息已过期123天
半长轴: 6587.319km
偏心率: 0.0021531
轨道倾角: 42.957°
近地点辐角 275.260°
升交点赤经 262.847°
平近点角 84.583°
近地点: 194.998km
远地点: 223.366km
周期: 88.679分钟
每日圈数: 16.238269
详细信息
固有亮度:
5
最大亮度:
0.3
卫星平台:
Starlink v2.0 mini
覆盖范围:
全球
运营商:
太空探索技术公司
运营商所在国:
美国
制造商(研发单位):
太空探索技术公司
制造商所在国:
美国
使用方式:
暂无
卫星简介
星链(Starlink)计划是由太空探索技术公司(SpaceX)提出的一个巨型低轨卫星互联网星座项目,计划在2019年至2024年间在太空搭建由约1.2万颗卫星组成的“星链”网络,其中1584颗将部署在地球上空550千米处的近地轨道,并从2020年开始工作。该卫星仍在工作。